This is the latest recevied weather packets stored in our database for station/object W4CKA. If no packets are shown the sender has not sent any weather packets the latest 10 day(s).
| Time | Temp. | Humidity | Pressure | Rain* | Wind** | Luminosity | Snow |
|---|---|---|---|---|---|---|---|
| 1787989476 | 18.89° C | 99% | 1061.8 hPa | 0 mm | - | 0 W/m² | - |
| 1787988881 | 18.89° C | 99% | 1062 hPa | 0 mm | - | 0 W/m² | - |
| 1787988270 | 18.33° C | 99% | 1062 hPa | 0 mm | - | 0 W/m² | - |
| 1787987666 | 18.89° C | 99% | 1061.9 hPa | 0 mm | - | 0 W/m² | - |
| 1787987062 | 18.33° C | 99% | 1061.9 hPa | 0 mm | - | 0 W/m² | - |
| 1787986461 | 17.78° C | 99% | 1061.9 hPa | 0 mm | - | 0 W/m² | - |
| 1787985860 | 18.33° C | 99% | 1062.1 hPa | 0 mm | - | 0 W/m² | - |
| 1787985256 | 18.89° C | 99% | 1062 hPa | 0 mm | - | 0 W/m² | - |
| 1787984656 | 18.89° C | 99% | 1061.9 hPa | 0 mm | - | 0 W/m² | - |
| 1787984056 | 18.89° C | 99% | 1062 hPa | 0 mm | - | 0 W/m² | - |
| 1787983451 | 18.89° C | 99% | 1062.1 hPa | 0 mm | - | 0 W/m² | - |
| 1787982847 | 19.44° C | 99% | 1062 hPa | 0 mm | - | 0 W/m² | - |
| 1787982244 | 18.89° C | 99% | 1061.8 hPa | 0 mm | - | 0 W/m² | - |
| 1787981639 | 19.44° C | 99% | 1061.9 hPa | 0 mm | - | 0 W/m² | - |
| 1787981039 | 18.89° C | 99% | 1061.8 hPa | 0 mm | - | 0 W/m² | - |
| 1787980440 | 18.89° C | 99% | 1062.1 hPa | 0 mm | - | 0 W/m² | - |
| 1787979836 | 19.44° C | 99% | 1062.1 hPa | 0 mm | - | 0 W/m² | - |
| 1787979236 | 20° C | 99% | 1062.3 hPa | 0 mm | - | 0 W/m² | - |
| 1787978635 | 20° C | 99% | 1062 hPa | 0 mm | - | 0 W/m² | - |
| 1787978029 | 20° C | 99% | 1062 hPa | 0 mm | - | 0 W/m² | - |
| 1787977426 | 20° C | 99% | 1062 hPa | 0 mm | - | 0 W/m² | - |
| 1787976823 | 20° C | 98% | 1061.7 hPa | 0 mm | - | 0 W/m² | - |
| 1787976223 | 20.56° C | 98% | 1061.8 hPa | 0 mm | - | 0 W/m² | - |
| 1787975621 | 20.56° C | 98% | 1061.6 hPa | 0 mm | - | 0 W/m² | - |
| 1787975019 | 20.56° C | 98% | 1061.7 hPa | 0 mm | - | 0 W/m² | - |
* Rain latest hour (hover to see other rain measurements)
** Current wind speed in m/s (hover to see current wind gust speed)